Location: Miles
(41.4492°N, 81.6087°W)
Time: 07:12:37
(UTC+00:00)

Vanguard 1 Rocket - Pass Details

Date: 14 September 2024
Orbit: 650 x 4218 km, 34.3° (Epoch: 05 October)

Event Time Altitude Azimuth Distance (km) Brightness Sun altitude
Rises 11:22:42 0° 260° (W) 6,329 11.0 2.2°
Reaches altitude 10° 11:26:11 10° 258° (WSW) 5,686 10.8 2.9°
Maximum altitude 11:45:56 72° 179° (S) 4,115 10.9 6.6°
Drops below altitude 10° 12:12:02 10° 102° (ESE) 7,162 14.9 11.4°
Sets 12:17:08 0° 101° (E) 7,949 14.3 12.4°
